Location: East Irvine
(33.6759°N, 117.7598°W)
Time: 02:40:36
(UTC+00:00)

NOAA 6 - Visible Passes

Search period start: 19 February 2026 00:00
Search period end: 01 March 2026 00:00
Orbit: 767 x 780 km, 98.6° (Epoch: 18 February)

Date Brightness Start Highest point End Pass type
(mag) Time Alt. Az. Time Alt. Az. Time Alt. Az.
19 Feb 4.8 02:00:26 10° SE 02:04:49 29° ENE 02:09:13 10° N visible
19 Feb 6.1 03:39:32 10° SSW 03:43:51 27° W 03:48:11 10° NW visible
20 Feb 4.5 03:04:23 10° S 03:09:26 62° WSW 03:14:33 10° NNW visible
21 Feb 4.0 02:30:09 10° SSE 02:35:11 59° ENE 02:40:15 10° N visible
21 Feb 7.0 04:12:20 10° WSW 04:14:38 13° W 04:16:56 10° WNW visible
22 Feb 5.9 03:35:38 10° SSW 03:40:05 30° W 03:44:34 10° NW visible
23 Feb 4.4 03:00:35 10° S 03:05:41 68° WSW 03:10:50 10° NNW visible
24 Feb 4.1 02:26:27 10° SSE 02:31:27 54° ENE 02:36:28 10° N visible
24 Feb 6.9 04:08:08 10° SW 04:10:50 14° W 04:13:34 10° WNW visible
25 Feb 5.8 03:31:43 10° SSW 03:36:18 32° W 03:40:55 10° NW visible
26 Feb 4.2 02:56:48 10° S 03:01:55 75° WSW 03:07:05 10° NNW visible
27 Feb 4.2 02:22:46 10° SSE 02:27:42 49° ENE 02:32:40 10° N visible
27 Feb 6.8 04:03:59 10° SW 04:07:03 16° W 04:10:07 10° WNW visible
28 Feb 5.6 03:27:50 10° SSW 03:32:31 35° W 03:37:15 10° NNW visible
